Date String (YYYY-MM-DD hh:mm:ss) UTC,Instrument flags,Ambient pressure (hPa),Sample flow (lpm),Bypass flow (lpm),Sample temperature (°C),Ambient temperature (°C),ASC tube jacket temperature (°C),LED temperature (°C),Box temperature (°C),Sample RH (%),Span deviation,Mass concentration (μg/m³),Mass concentration (μg/m³),Mass concentration (μg/m³)
DateTimeUTC,F1_M11,P_M11,Q1_M11,Q2_M11,T1_M11,T2_M11,T3_M11,T4_M11,T5_M11,U1_M11,ZSPAN_M11,X0_M11,X2_M11,X1_M11
2022-08-08 08:00:00,,0832.7,5.01,0.00,32.6,28.2,00.0,40.6,32.6,34.7,-000.1,0018.36,0006.10,0004.74
2022-08-08 08:01:00,,0832.7,4.99,0.00,32.5,28.3,00.0,40.6,32.6,34.7,-000.1,0016.65,0006.00,0004.71
2022-08-08 08:02:00,,0832.7,5.00,0.00,32.5,28.5,00.0,40.6,32.6,34.9,-000.0,0017.30,0006.01,0004.68
2022-08-08 08:03:00,,0832.7,4.99,0.00,32.4,28.6,00.0,40.6,32.6,35.0,0000.0,0018.12,0006.00,0004.66
2022-08-08 08:04:00,,0832.7,5.01,0.00,32.3,28.7,00.0,40.6,32.6,34.9,0000.0,0018.22,0006.00,0004.63
2022-08-08 08:05:00,,0832.7,4.99,0.00,32.3,28.8,00.0,40.5,32.6,34.3,0000.0,0018.77,0005.99,0004.59
2022-08-08 08:06:00,,0832.7,4.99,0.00,32.2,28.9,00.0,40.5,32.6,34.1,0000.0,0018.80,0005.99,0004.54
2022-08-08 08:07:00,,0832.7,4.99,0.00,32.2,29.0,00.0,40.5,32.6,34.2,0000.0,0018.39,0005.89,0004.49
2022-08-08 08:08:00,,0832.7,5.01,0.00,32.1,29.0,00.0,40.5,32.6,34.5,0000.0,0017.91,0005.88,0004.45
2022-08-08 08:09:00,,0832.7,5.01,0.00,32.1,29.1,00.0,40.5,32.7,34.6,0000.0,0017.42,0005.83,0004.42
2022-08-08 08:10:00,,0832.7,5.00,0.00,32.0,29.2,00.0,40.5,32.7,34.5,0000.0,0016.44,0005.78,0004.40
2022-08-08 08:11:00,,0832.7,4.99,0.00,32.0,29.2,00.0,40.5,32.7,34.3,0000.0,0014.88,0005.66,0004.36
2022-08-08 08:12:00,,0832.7,5.00,0.00,31.9,29.2,00.0,40.4,32.7,34.2,0000.0,0015.26,0005.55,0004.31
2022-08-08 08:13:00,,0832.7,5.01,0.00,31.9,29.3,00.0,40.4,32.7,34.2,0000.0,0014.12,0005.47,0004.28
2022-08-08 08:14:00,,0832.6,5.00,0.00,31.8,29.3,00.0,40.4,32.7,34.2,0000.0,0012.81,0005.33,0004.25
2022-08-08 08:15:00,,0832.6,5.00,0.00,31.8,29.2,00.0,40.4,32.7,34.3,0000.0,0012.26,0005.24,0004.23
2022-08-08 08:16:00,,0832.6,4.99,0.00,31.8,28.5,00.0,40.3,32.5,34.5,0000.0,0011.33,0005.16,0004.23
2022-08-08 08:17:00,,0832.6,5.01,0.00,31.7,28.1,00.0,40.2,32.4,34.8,0000.0,0010.96,0005.06,0004.23
2022-08-08 08:18:00,,0832.6,4.99,0.00,31.6,27.9,00.0,40.2,32.3,35.0,0000.0,0010.98,0005.01,0004.24
2022-08-08 08:19:00,,0832.5,5.01,0.00,31.5,28.0,00.0,40.1,32.3,35.2,0000.0,0010.48,0004.96,0004.25
2022-08-08 08:20:00,,0832.5,4.99,0.00,31.7,28.1,00.0,40.1,32.4,35.0,0000.0,0010.63,0004.99,0004.25
2022-08-08 08:21:00,,0832.5,5.00,0.00,31.9,28.2,00.0,40.0,32.5,34.5,0000.0,0010.53,0004.97,0004.25
2022-08-08 08:22:00,,0832.5,5.01,0.00,32.0,28.3,00.0,40.0,32.5,34.3,0000.0,0010.49,0004.96,0004.24
2022-08-08 08:23:00,,0832.5,5.00,0.00,32.0,28.4,00.0,40.0,32.4,34.2,0000.0,0009.62,0004.96,0004.25
2022-08-08 08:24:00,,0832.6,5.01,0.00,32.0,28.5,00.0,40.0,32.4,34.2,0000.0,0009.61,0004.97,0004.26
2022-08-08 08:25:00,,0832.6,5.00,0.00,31.9,28.6,00.0,40.1,32.5,34.3,0000.0,0009.85,0004.99,0004.26
2022-08-08 08:26:00,,0832.6,5.00,0.00,31.9,28.7,00.0,40.1,32.5,34.4,0000.0,0010.47,0005.02,0004.25
2022-08-08 08:27:00,,0832.6,5.00,0.00,31.9,28.8,00.0,40.1,32.5,34.5,0000.0,0010.44,0005.02,0004.23
2022-08-08 08:28:00,,0832.6,4.99,0.00,31.8,28.9,00.0,40.1,32.5,34.6,0000.0,0010.71,0005.04,0004.22
2022-08-08 08:29:00,,0832.6,5.00,0.00,31.8,29.0,00.0,40.1,32.5,34.7,0000.0,0010.78,0005.08,0004.22
2022-08-08 08:30:00,,0832.6,5.00,0.00,31.7,29.0,00.0,40.1,32.5,34.7,0000.0,0010.61,0005.14,0004.22
2022-08-08 08:31:00,,0832.7,5.00,0.00,31.7,29.1,00.0,40.1,32.5,34.8,0000.0,0010.59,0005.18,0004.22
2022-08-08 08:32:00,,0832.7,5.01,0.00,31.7,29.1,00.0,40.1,32.5,34.6,0000.0,0010.50,0005.15,0004.21
2022-08-08 08:33:00,,0832.7,5.01,0.00,31.6,29.2,00.0,40.1,32.6,34.5,0000.0,0010.82,0005.17,0004.22
2022-08-08 08:34:00,,0832.8,5.00,0.00,31.6,29.2,00.0,40.1,32.6,34.1,0000.0,0011.19,0005.20,0004.21
2022-08-08 08:35:00,,0832.8,4.99,0.00,31.6,29.3,00.0,40.1,32.6,34.0,0000.0,0011.16,0005.14,0004.18
2022-08-08 08:36:00,,0832.7,5.00,0.00,31.6,29.3,00.0,40.1,32.6,33.9,0000.0,0010.94,0005.10,0004.16
2022-08-08 08:37:00,,0832.7,5.00,0.00,31.5,29.3,00.0,40.1,32.6,33.6,0000.0,0010.26,0005.06,0004.15
2022-08-08 08:38:00,,0832.8,5.00,0.00,31.5,29.2,00.0,40.1,32.5,33.6,0000.0,0010.32,0004.99,0004.13
2022-08-08 08:39:00,,0832.7,4.99,0.00,31.5,28.5,00.0,40.0,32.4,33.6,0000.0,0010.60,0004.93,0004.11
2022-08-08 08:40:00,,0832.7,5.02,0.00,31.4,28.0,00.0,39.9,32.3,33.8,0000.0,0010.21,0004.85,0004.09
2022-08-08 08:41:00,,0832.8,4.99,0.00,31.2,27.9,00.0,39.9,32.2,34.0,0000.0,0010.35,0004.78,0004.06
2022-08-08 08:42:00,,0832.8,5.00,0.00,31.1,27.9,00.0,39.9,32.1,34.3,0000.0,0010.32,0004.68,0004.03
2022-08-08 08:43:00,,0832.7,4.99,0.00,31.0,28.0,00.0,39.8,32.1,34.7,0000.0,0010.72,0004.64,0004.01
2022-08-08 08:44:00,,0832.7,5.00,0.00,31.0,28.2,00.0,39.8,32.1,34.8,0000.0,0010.56,0004.66,0004.00
2022-08-08 08:45:00,,0832.7,5.02,0.00,30.9,28.3,00.0,39.7,32.1,35.0,0000.0,0010.18,0004.62,0003.98
2022-08-08 08:46:00,,0832.7,5.00,0.00,31.0,28.4,00.0,39.7,32.2,35.1,0000.0,0010.27,0004.62,0003.98
2022-08-08 08:47:00,,0832.7,4.99,0.00,31.2,28.5,00.0,39.7,32.3,34.7,0000.0,0010.59,0004.63,0003.98
2022-08-08 08:48:00,,0832.7,5.00,0.00,31.3,28.6,00.0,39.7,32.4,34.6,0000.0,0010.85,0004.65,0003.97
2022-08-08 08:49:00,,0832.7,5.00,0.00,31.4,28.7,00.0,39.7,32.4,34.6,0000.0,0011.35,0004.69,0003.97
2022-08-08 08:50:00,,0832.7,5.00,0.00,31.4,28.8,00.0,39.7,32.3,34.6,0000.0,0010.69,0004.68,0003.97
2022-08-08 08:51:00,,0832.7,5.00,0.00,31.4,28.8,00.0,39.7,32.3,34.6,0000.0,0010.71,0004.72,0003.98
2022-08-08 08:52:00,,0832.7,5.00,0.00,31.4,28.9,00.0,39.7,32.3,34.8,0000.0,0010.47,0004.72,0004.00
2022-08-08 08:53:00,,0832.7,5.01,0.00,31.4,29.0,00.0,39.7,32.4,35.3,0000.0,0010.29,0004.79,0004.03
2022-08-08 08:54:00,,0832.7,5.01,0.00,31.6,29.0,00.0,39.8,32.6,35.1,0000.0,0009.91,0004.83,0004.08
2022-08-08 08:55:00,,0832.7,4.99,0.00,31.9,29.1,00.0,39.8,32.7,34.9,0000.0,0009.73,0004.84,0004.14
2022-08-08 08:56:00,,0832.7,5.00,0.00,32.2,29.1,00.0,39.8,32.8,34.7,0000.0,0009.63,0004.91,0004.20
2022-08-08 08:57:00,,0832.7,5.00,0.00,32.3,29.2,00.0,39.9,32.8,34.7,0000.0,0009.49,0004.98,0004.28
2022-08-08 08:58:00,,0832.7,5.02,0.00,32.3,29.2,00.0,39.9,32.7,35.0,0000.0,0009.26,0005.05,0004.39
2022-08-08 08:59:00,,0832.7,5.00,0.00,32.4,29.3,00.0,40.0,32.8,34.7,0000.0,0009.27,0005.14,0004.48
